TimeMDT,TemperatureF,Dew PointF,Humidity,Sea Level PressureIn,VisibilityMPH,Wind Direction,Wind SpeedMPH,Gust SpeedMPH,PrecipitationIn,Events,Conditions,WindDirDegrees,DateUTC
12:53 AM,36.0,26.1,67,29.80,10.0,NE,9.2,-,N/A,,Overcast,40,2013-04-17 06:53:00
1:53 AM,34.0,30.9,89,29.79,10.0,WNW,4.6,-,N/A,,Overcast,300,2013-04-17 07:53:00
2:30 AM,32.0,30.2,93,29.82,3.0,WNW,6.9,-,0.00,Snow,Light Snow,290,2013-04-17 08:30:00
2:37 AM,32.0,30.2,93,29.82,2.0,NW,5.8,-,0.00,Snow,Light Snow,310,2013-04-17 08:37:00
2:53 AM,32.0,30.9,96,29.80,2.5,NW,6.9,-,0.00,Snow,Light Snow,310,2013-04-17 08:53:00
3:20 AM,32.0,30.2,93,29.81,3.0,NW,5.8,-,0.00,Snow,Light Snow,320,2013-04-17 09:20:00
3:53 AM,30.9,30.0,96,29.79,10.0,WNW,6.9,-,0.00,,Overcast,300,2013-04-17 09:53:00
4:09 AM,30.2,30.2,100,29.80,10.0,NW,6.9,-,N/A,,Overcast,310,2013-04-17 10:09:00
4:31 AM,32.0,30.2,93,29.80,10.0,NW,6.9,-,N/A,,Overcast,320,2013-04-17 10:31:00
4:40 AM,32.0,30.2,93,29.80,10.0,NW,6.9,-,N/A,,Overcast,310,2013-04-17 10:40:00
4:53 AM,32.0,30.0,92,29.78,10.0,NW,8.1,-,N/A,,Overcast,310,2013-04-17 10:53:00
5:03 AM,32.0,30.2,93,29.80,10.0,NW,8.1,-,N/A,,Overcast,320,2013-04-17 11:03:00
5:32 AM,32.0,30.2,93,29.80,10.0,NW,5.8,-,N/A,,Overcast,310,2013-04-17 11:32:00
5:53 AM,30.9,30.0,96,29.81,10.0,WNW,9.2,-,N/A,,Overcast,300,2013-04-17 11:53:00
6:03 AM,30.2,30.2,100,29.80,10.0,NW,9.2,-,N/A,,Overcast,310,2013-04-17 12:03:00
6:10 AM,30.2,30.2,100,29.80,10.0,NW,10.4,-,N/A,,Overcast,310,2013-04-17 12:10:00
6:30 AM,30.2,28.4,93,29.81,9.0,NW,10.4,-,0.00,Snow,Light Snow,320,2013-04-17 12:30:00
6:53 AM,30.0,28.0,92,29.82,8.0,WNW,11.5,-,0.01,Snow,Light Snow,300,2013-04-17 12:53:00
7:53 AM,30.2,26.6,86,29.84,6.0,WNW,5.8,-,N/A,Snow,Light Snow,290,2013-04-17 13:53:00
8:03 AM,30.2,26.6,86,29.84,7.0,West,3.5,-,0.00,Snow,Light Snow,280,2013-04-17 14:03:00
8:18 AM,30.2,26.6,86,29.85,2.0,Calm,Calm,-,0.00,Snow,Light Snow,0,2013-04-17 14:18:00
8:25 AM,30.2,28.4,93,29.86,1.5,Calm,Calm,-,0.00,Snow,Light Snow,0,2013-04-17 14:25:00
8:53 AM,30.0,28.9,96,29.88,0.8,SE,4.6,-,0.00,Snow,Light Snow,140,2013-04-17 14:53:00
9:07 AM,30.2,28.4,93,29.86,1.0,SE,5.8,-,0.01,Snow,Light Snow,140,2013-04-17 15:07:00
9:25 AM,30.2,28.4,93,29.87,1.2,ESE,6.9,-,0.01,Snow,Light Snow,120,2013-04-17 15:25:00
9:53 AM,30.9,28.9,92,29.89,2.0,ESE,6.9,-,0.01,Snow,Light Snow,120,2013-04-17 15:53:00
10:09 AM,30.2,28.4,93,29.88,3.0,SE,5.8,-,0.00,Snow,Light Snow,140,2013-04-17 16:09:00
10:30 AM,32.0,28.4,87,29.89,6.0,SSE,6.9,-,0.00,Snow,Light Snow,150,2013-04-17 16:30:00
10:40 AM,32.0,28.4,87,29.89,6.0,SSE,5.8,-,0.00,Snow,Light Snow,150,2013-04-17 16:40:00
10:53 AM,33.1,27.0,78,29.93,10.0,SSE,5.8,-,0.00,,Overcast,150,2013-04-17 16:53:00
11:15 AM,33.8,26.6,75,29.91,10.0,WSW,3.5,-,N/A,,Overcast,250,2013-04-17 17:15:00
11:53 AM,34.0,28.0,79,29.95,8.0,West,6.9,-,0.00,Snow,Light Snow,270,2013-04-17 17:53:00
12:53 PM,36.0,24.1,62,29.95,10.0,SW,3.5,-,0.00,,Mostly Cloudy,220,2013-04-17 18:53:00
1:53 PM,39.9,26.1,58,29.95,10.0,WNW,10.4,-,0.00,,Overcast,290,2013-04-17 19:53:00
2:53 PM,42.1,19.9,41,29.96,10.0,NNW,11.5,-,N/A,,Overcast,330,2013-04-17 20:53:00
3:53 PM,44.1,12.0,27,29.96,10.0,NNE,17.3,20.7,N/A,,Partly Cloudy,30,2013-04-17 21:53:00
4:53 PM,45.0,10.9,25,29.96,10.0,NNE,16.1,26.5,N/A,,Clear,30,2013-04-17 22:53:00
5:53 PM,42.1,10.9,28,30.00,10.0,ENE,12.7,-,N/A,,Mostly Cloudy,60,2013-04-17 23:53:00
6:53 PM,41.0,15.1,35,30.03,10.0,North,13.8,24.2,N/A,,Overcast,360,2013-04-18 00:53:00
7:53 PM,37.9,18.0,45,30.06,10.0,NNE,11.5,-,N/A,,Mostly Cloudy,30,2013-04-18 01:53:00
8:53 PM,35.1,14.0,42,30.10,10.0,ENE,13.8,-,N/A,,Clear,60,2013-04-18 02:53:00
9:53 PM,35.1,12.0,39,30.13,10.0,ENE,9.2,-,N/A,,Overcast,70,2013-04-18 03:53:00
10:53 PM,33.1,12.9,43,30.14,10.0,Calm,Calm,-,N/A,,Mostly Cloudy,0,2013-04-18 04:53:00
11:53 PM,34.0,12.9,42,30.16,10.0,NE,6.9,-,N/A,,Overcast,50,2013-04-18 05:53:00